Content
SEND FEEDBACK

Daily
Averages
Monthly
Summary
Hungary

DESZK, HUNGARY


Home > Europe > Hungary
Elevation: 272 feet     Latitude: 46 18N     Longitude: 020 06E

WEATHER
 
SELECT A DAY
Number of Records: 44,623;   Date Range: 5/9/04 - 9/19/14
 
SHARE

PRINT THIS DATA

[ ← Previous Day ]
WEATHER ALMANAC - FEBRUARY 5, 2013
[ Next Day → ]
[ °C ]   °F
Weather ElementAverageHighLow
Temperature39.5 °F46.4 °F (1:15 pm)30.2 °F (5:45 am)
Dewpoint34.9 °F39.2 °F (3:45 pm)28.4 °F (5:45 am)
Humidity83.6 %100 % (7:45 pm)61 % (1:00 pm)
Barometer29.84 in30.01 in (1:00 am)29.65 in (11:45 pm)
Wind Speed7.7 mph11.5 mph (8:15 pm)
Weather ElementAverage
Visibility8.9 mi
Wind DirectionSSE (166 °)

Weather ElementTotal
Precipitation---
Heating Degree Days26.7 (Base 65)
Averaged from 40 records on February 5, 2013
WEATHER CONDITIONS BREAKOUT
WIND DIRECTION BREAKOUT
WEATHER BY HOUR - FEBRUARY 5, 2013
[ °C ]   °F
Local TimeTemperatureDewpointHumidityBarometerVisibilityWind DirectionWind SpeedGust SpeedPrecipitationEventsConditions
1:00 AM34.0 °F31.0 °F84 %30.01 in16.0 miSSW (200°)8.9 mphPartly Cloudy
1:45 AM35.6 °F32.0 °F87 %30.01 inSSW (200°)9.2 mphClear
2:45 AM32.0 °F30.2 °F93 %29.98 inSouth (190°)8.1 mphClear
5:45 AM30.2 °F28.4 °F93 %29.98 inSSE (160°)9.2 mphClear
6:15 AM30.2 °F28.4 °F93 %29.98 in4.3 miSouth (170°)9.2 mphScattered Clouds
6:45 AM32.0 °F30.2 °F93 %29.95 in3.7 miSSE (160°)8.1 mphMostly Cloudy
7:00 AM32.0 °F29.0 °F86 %29.97 in4.0 miSSE (160°)8.9 mphPartly Cloudy
7:15 AM32.0 °F30.2 °F93 %29.95 inSSE (160°)6.9 mphClear
7:45 AM33.8 °F30.2 °F87 %29.95 inSSE (160°)6.9 mphClear
8:15 AM33.8 °F30.2 °F87 %29.95 inSSE (150°)5.8 mphClear
8:45 AM33.8 °F30.2 °F87 %29.95 inSSE (160°)4.6 mphClear
9:15 AM35.6 °F30.2 °F81 %29.95 inSSE (160°)8.1 mphClear
9:45 AM37.4 °F32.0 °F81 %29.95 inSouth (170°)10.4 mphClear
10:45 AM41.0 °F32.0 °F70 %29.92 inSouth (170°)9.2 mphClear
11:15 AM42.8 °F32.0 °F66 %29.92 inSSE (160°)9.2 mphClear
11:45 AM42.8 °F33.8 °F70 %29.89 inSSE (150°)8.1 mphClear
12:15 PM44.6 °F33.8 °F66 %29.89 inSSE (150°)9.2 mphClear
12:45 PM44.6 °F35.6 °F71 %29.86 inSSE (150°)9.2 mphClear
1:00 PM45.0 °F36.0 °F61 %29.86 in25.0 miSSE (150°)8.9 mphPartly Cloudy
1:15 PM46.4 °F37.4 °F71 %29.86 inSSE (150°)9.2 mphClear
1:45 PM46.4 °F35.6 °F66 %29.83 inSouth (180°)9.2 mphClear
2:15 PM44.6 °F37.4 °F76 %29.83 inSSE (160°)6.9 mphClear
2:45 PM44.6 °F37.4 °F76 %29.80 inSE (140°)9.2 mphClear
3:15 PM44.6 °F37.4 °F76 %29.77 inSE (130°)10.4 mphClear
3:45 PM44.6 °F39.2 °F81 %29.77 inSE (130°)9.2 mphClear
4:15 PM44.6 °F39.2 °F81 %29.74 inSSE (150°)9.2 mphClear
4:45 PM42.8 °F39.2 °F87 %29.74 inSSE (160°)6.9 mphClear
5:15 PM42.8 °F39.2 °F87 %29.74 inSouth (170°)5.8 mphClear
5:45 PM41.0 °F39.2 °F93 %29.74 inSSE (160°)5.8 mphClear
6:15 PM41.0 °F39.2 °F93 %29.74 inSSE (160°)4.6 mphClear
6:45 PM39.2 °F37.4 °F93 %29.74 inSouth (190°)3.5 mphClear
7:00 PM40.0 °F38.0 °F88 %29.75 in16.0 miSouth (190°)4.5 mphPartly Cloudy
7:15 PM39.2 °F37.4 °F93 %29.74 inSSW (200°)5.8 mphClear
7:43 PM41.0 °F39.2 °F93 %29.74 inSSW (210°)6.9 mph
7:45 PM39.2 °F39.2 °F100 %29.74 in6.2 miSSW (200°)6.9 mphRainLight Rain
8:15 PM42.8 °F39.2 °F87 %29.71 in6.2 miSouth (170°)11.5 mphOvercast
8:45 PM41.0 °F39.2 °F93 %29.71 in6.2 miSouth (170°)9.2 mphOvercast
9:45 PM41.0 °F37.4 °F87 %29.71 in6.2 miSSE (160°)9.2 mphOvercast
10:45 PM41.0 °F37.4 °F87 %29.68 in6.2 miSSE (160°)2.3 mphScattered Clouds
11:45 PM37.4 °F33.8 °F87 %29.65 in6.2 miSouth (170°)3.5 mphScattered Clouds
Hourly data recorded from LHUD, located miles away from Deszk, Hungary







STORIES FROM OUR PARTNERS